Location: Napa Soda Springs
(38.3907°N, 122.2794°W)
Time: 15:34:42
(UTC+00:00)

deb Chang Zheng 4 - Pass Details

Date: 29 October 2020
Orbit: 602 x 624 km, 98.6° (Epoch: 01 December)

Event Time Altitude Azimuth Distance (km) Brightness Sun altitude
Rises 13:37:58 0° 360° (N) 2,864 6.9 -11.3°
Reaches altitude 10° 13:40:23 10° 348° (NNW) 1,959 5.9 -10.9°
Maximum altitude 13:43:56 27° 291° (WNW) 1,189 4.5 -10.2°
Drops below altitude 10° 13:47:30 10° 234° (SW) 1,958 5.7 -9.5°
Sets 13:49:55 0° 222° (SW) 2,862 6.7 -9.0°
